| time (UTC) | temp C | wind direction | speed KPH | gust KPH | rain 1hr cm | rain 24hr cm | rain mn cm | humidity % | barometer mb |
| 20260902204518 | 36 | 184 | 3.2 | 12.9 | 0.00 | 0.00 | 0.00 | 47 | 1015.7 |
| 20260902203019 | 37 | 228 | 3.2 | 11.3 | 0.00 | 0.00 | 0.00 | 46 | 1015.8 |
| 20260902201534 | 37 | 113 | 1.6 | 6.4 | 0.00 | 0.00 | 0.00 | 47 | 1015.8 |
| 20260902200035 | 36 | 185 | 3.2 | 11.3 | 0.00 | 0.00 | 0.00 | 49 | 1016.0 |
| 20260902194514 | 36 | 94 | 1.6 | 14.5 | 0.00 | 0.00 | 0.00 | 49 | 1016.2 |
| 20260902193017 | 36 | 101 | 1.6 | 17.7 | 0.00 | 0.00 | 0.00 | 49 | 1016.5 |
| 20260902191532 | 36 | 203 | 8.0 | 14.5 | 0.00 | 0.00 | 0.00 | 50 | 1016.8 |
| 20260902190004 | 35 | 144 | 6.4 | 12.9 | 0.00 | 0.00 | 0.00 | 50 | 1017.1 |
| 20260902184508 | 36 | 179 | 3.2 | 9.7 | 0.00 | 0.00 | 0.00 | 51 | 1017.4 |
| 20260902183018 | 36 | 225 | 3.2 | 8.0 | 0.00 | 0.00 | 0.00 | 53 | 1017.5 |
| 20260902181518 | 35 | 75 | 6.4 | 14.5 | 0.00 | 0.00 | 0.00 | 52 | 1017.7 |
| 20260902180024 | 35 | 189 | 3.2 | 12.9 | 0.00 | 0.00 | 0.00 | 52 | 1017.7 |
| 20260902174506 | 35 | 128 | 4.8 | 11.3 | 0.00 | 0.00 | 0.00 | 56 | 1017.9 |
| 20260902173009 | 35 | 27 | 1.6 | 12.9 | 0.00 | 0.00 | 0.00 | 54 | 1018.0 |
| 20260902171515 | 35 | 79 | 4.8 | 9.7 | 0.00 | 0.00 | 0.00 | 55 | 1018.3 |
| 20260902170021 | 35 | 188 | 4.8 | 12.9 | 0.00 | 0.00 | 0.00 | 58 | 1018.6 |
| 20260902164504 | 34 | 173 | 3.2 | 9.7 | 0.00 | 0.00 | 0.00 | 57 | 1018.8 |
| 20260902163004 | 34 | 333 | 1.6 | 9.7 | 0.00 | 0.00 | 0.00 | 58 | 1019.1 |
| 20260902161517 | 33 | 224 | 1.6 | 6.4 | 0.00 | 0.00 | 0.00 | 59 | 1019.1 |
| 20260902160017 | 32 | 338 | 0.0 | 6.4 | 0.00 | 0.00 | 0.00 | 62 | 1019.3 |
| 20260902154528 | 32 | 184 | 1.6 | 8.0 | 0.00 | 0.00 | 0.00 | 63 | 1019.2 |
| 20260902153004 | 32 | 249 | 3.2 | 6.4 | 0.00 | 0.00 | 0.00 | 67 | 1019.2 |
| 20260902151506 | 31 | 20 | 3.2 | 4.8 | 0.00 | 0.00 | 0.00 | 71 | 1019.3 |
| 20260902150014 | 31 | 204 | 0.0 | 6.4 | 0.00 | 0.00 | 0.00 | 71 | 1019.2 |
| 20260902144529 | 30 | 343 | 1.6 | 4.8 | 0.00 | 0.00 | 0.00 | 75 | 1019.2 |
| 20260902143025 | 29 | 293 | 1.6 | 4.8 | 0.00 | 0.00 | 0.00 | 79 | 1019.2 |
| 20260902141510 | 30 | 335 | 0.0 | 0.0 | 0.00 | 0.00 | 0.00 | 78 | 1019.2 |
| 20260902140016 | 28 | 316 | 0.0 | 0.0 | 0.00 | 0.00 | 0.00 | 81 | 1019.3 |
| 20260902134530 | 27 | 325 | 0.0 | 0.0 | 0.00 | 0.00 | 0.00 | 83 | 1019.2 |
| 20260902133023 | 27 | 132 | 0.0 | 0.0 | 0.00 | 0.00 | 0.00 | 84 | 1019.3 |
| 20260902131525 | 26 | 151 | 0.0 | 0.0 | 0.00 | 0.00 | 0.00 | 87 | 1019.4 |
| 20260902130007 | 24 | 117 | 0.0 | 0.0 | 0.00 | 0.00 | 0.00 | 94 | 1019.2 |
| 20260902124511 | 22 | 117 | 0.0 | 0.0 | 0.00 | 0.00 | 0.00 | 95 | 1019.2 |
| 20260902123017 | 22 | 117 | 0.0 | 0.0 | 0.00 | 0.00 | 0.00 | 94 | 1018.9 |
| 20260902121520 | 22 | 117 | 0.0 | 0.0 | 0.00 | 0.00 | 0.00 | 94 | 1018.7 |
| 20260902120027 | 21 | 117 | 0.0 | 0.0 | 0.00 | 0.00 | 0.00 | 94 | 1018.7 |
| 20260902114508 | 21 | 117 | 0.0 | 0.0 | 0.00 | 0.00 | 0.00 | 94 | 1018.6 |
| 20260902113029 | 21 | 117 | 0.0 | 0.0 | 0.00 | 0.00 | 0.00 | 94 | 1018.5 |
| 20260902111521 | 21 | 117 | 0.0 | 0.0 | 0.00 | 0.00 | 0.00 | 94 | 1018.2 |
| 20260902110022 | 21 | 117 | 0.0 | 0.0 | 0.00 | 0.00 | 0.00 | 94 | 1018.1 |
| 20260902104530 | 21 | 117 | 0.0 | 0.0 | 0.00 | 0.00 | 0.00 | 93 | 1018.1 |
| 20260902103020 | 22 | 117 | 0.0 | 0.0 | 0.00 | 0.00 | 0.00 | 93 | 1017.9 |
| 20260902101516 | 22 | 117 | 0.0 | 0.0 | 0.00 | 0.00 | 0.00 | 93 | 1017.8 |
| 20260902100022 | 22 | 117 | 0.0 | 0.0 | 0.00 | 0.00 | 0.00 | 93 | 1017.7 |
| 20260902094528 | 22 | 117 | 0.0 | 0.0 | 0.00 | 0.00 | 0.00 | 93 | 1017.5 |
| 20260902093030 | 22 | 117 | 0.0 | 0.0 | 0.00 | 0.00 | 0.00 | 93 | 1017.3 |
| 20260902091510 | 22 | 117 | 0.0 | 0.0 | 0.00 | 0.00 | 0.00 | 93 | 1017.2 |
| 20260902090020 | 22 | 117 | 0.0 | 0.0 | 0.00 | 0.00 | 0.00 | 93 | 1017.1 |
| 20260902084525 | 22 | 117 | 0.0 | 0.0 | 0.00 | 0.00 | 0.00 | 93 | 1017.2 |
| 20260902083028 | 22 | 117 | 0.0 | 0.0 | 0.00 | 0.00 | 0.00 | 93 | 1017.0 |
| 20260902081531 | 22 | 117 | 0.0 | 0.0 | 0.00 | 0.00 | 0.00 | 93 | 1017.0 |
| 20260902080013 | 22 | 117 | 0.0 | 0.0 | 0.00 | 0.00 | 0.00 | 93 | 1017.0 |
| 20260902074520 | 23 | 117 | 0.0 | 0.0 | 0.00 | 0.00 | 0.00 | 92 | 1017.0 |
| 20260902073025 | 23 | 117 | 0.0 | 0.0 | 0.00 | 0.00 | 0.00 | 93 | 1017.1 |
| 20260902071528 | 23 | 117 | 0.0 | 0.0 | 0.00 | 0.00 | 0.00 | 92 | 1017.2 |
| 20260902070031 | 23 | 117 | 0.0 | 0.0 | 0.00 | 0.00 | 0.00 | 92 | 1017.0 |
| 20260902064515 | 23 | 117 | 0.0 | 0.0 | 0.00 | 0.00 | 0.00 | 92 | 1017.0 |
| 20260902063018 | 23 | 117 | 0.0 | 0.0 | 0.00 | 0.00 | 0.00 | 91 | 1017.2 |
| 20260902061527 | 23 | 117 | 0.0 | 0.0 | 0.00 | 0.00 | 0.00 | 91 | 1017.3 |
| 20260902060029 | 23 | 117 | 0.0 | 0.0 | 0.00 | 0.00 | 0.00 | 91 | 1017.4 |
| 20260902054531 | 23 | 117 | 0.0 | 0.0 | 0.00 | 0.00 | 0.00 | 91 | 1017.7 |
| 20260902053018 | 23 | 117 | 0.0 | 0.0 | 0.00 | 0.00 | 0.00 | 90 | 1017.7 |
| 20260902051524 | 23 | 117 | 0.0 | 1.6 | 0.00 | 0.00 | 0.00 | 90 | 1017.7 |
| 20260902050026 | 23 | 117 | 0.0 | 0.0 | 0.00 | 0.00 | 0.00 | 89 | 1017.6 |
| 20260902044529 | 23 | 117 | 0.0 | 1.6 | 0.00 | 0.00 | 0.00 | 89 | 1017.7 |
| 20260902043035 | 24 | 117 | 0.0 | 0.0 | 0.00 | 0.00 | 0.00 | 90 | 1017.8 |
| 20260902041519 | 24 | 117 | 0.0 | 0.0 | 0.00 | 0.00 | 0.00 | 89 | 1017.8 |
| 20260902040027 | 24 | 118 | 0.0 | 1.6 | 0.00 | 0.00 | 0.00 | 89 | 1017.9 |
| 20260902034530 | 24 | 119 | 0.0 | 1.6 | 0.00 | 0.00 | 0.00 | 89 | 1017.9 |
| 20260902033036 | 25 | 119 | 0.0 | 0.0 | 0.00 | 0.00 | 0.00 | 88 | 1017.8 |
| 20260902031530 | 25 | 119 | 0.0 | 1.6 | 0.00 | 0.00 | 0.00 | 87 | 1017.9 |
| 20260902030023 | 25 | 122 | 0.0 | 0.0 | 0.00 | 0.00 | 0.00 | 87 | 1017.9 |
| 20260902024527 | 25 | 122 | 0.0 | 0.0 | 0.00 | 0.00 | 0.00 | 87 | 1017.9 |
| 20260902023040 | 25 | 122 | 0.0 | 0.0 | 0.00 | 0.00 | 0.00 | 86 | 1017.8 |
| 20260902021533 | 26 | 122 | 0.0 | 0.0 | 0.00 | 0.00 | 0.00 | 84 | 1017.7 |
| 20260902020033 | 26 | 122 | 0.0 | 0.0 | 0.00 | 0.00 | 0.00 | 84 | 1017.4 |
| 20260902014536 | 26 | 122 | 0.0 | 0.0 | 0.00 | 0.00 | 0.00 | 82 | 1017.1 |
| 20260902013029 | 27 | 122 | 0.0 | 0.0 | 0.00 | 0.00 | 0.00 | 81 | 1016.7 |
| 20260902011542 | 27 | 122 | 0.0 | 0.0 | 0.00 | 0.00 | 0.00 | 80 | 1016.5 |
| 20260902010014 | 28 | 131 | 0.0 | 3.2 | 0.00 | 0.00 | 0.00 | 77 | 1016.4 |
| 20260902004520 | 28 | 154 | 0.0 | 1.6 | 0.00 | 0.00 | 0.00 | 76 | 1016.2 |
| 20260902003029 | 29 | 97 | 1.6 | 4.8 | 0.00 | 0.00 | 0.00 | 74 | 1015.9 |
| 20260902001528 | 30 | 203 | 1.6 | 4.8 | 0.00 | 0.00 | 0.00 | 72 | 1015.7 |
| 20260902000040 | 31 | 219 | 1.6 | 6.4 | 0.00 | 0.00 | 0.00 | 69 | 1015.8 |
| 20260901234515 | 32 | 153 | 1.6 | 8.0 | 0.00 | 0.00 | 0.00 | 67 | 1015.8 |
| 20260901233023 | 33 | 186 | 3.2 | 6.4 | 0.00 | 0.00 | 0.00 | 66 | 1015.7 |
| 20260901231528 | 33 | 138 | 1.6 | 6.4 | 0.00 | 0.00 | 0.00 | 65 | 1015.8 |
| 20260901230032 | 33 | 125 | 1.6 | 8.0 | 0.00 | 0.00 | 0.00 | 63 | 1015.9 |
| 20260901224504 | 34 | 95 | 0.0 | 1.6 | 0.00 | 0.00 | 0.00 | 61 | 1016.1 |
| 20260901223009 | 35 | 127 | 0.0 | 4.8 | 0.00 | 0.00 | 0.00 | 58 | 1016.1 |
| 20260901221504 | 35 | 153 | 3.2 | 8.0 | 0.00 | 0.00 | 0.00 | 55 | 1015.9 |
| 20260901220004 | 35 | 165 | 1.6 | 6.4 | 0.00 | 0.00 | 0.00 | 58 | 1016.0 |
| 20260901214508 | 35 | 59 | 1.6 | 4.8 | 0.00 | 0.00 | 0.00 | 55 | 1016.1 |
| 20260901213003 | 35 | 111 | 1.6 | 6.4 | 0.00 | 0.00 | 0.00 | 54 | 1016.2 |
| 20260901211508 | 35 | 165 | 1.6 | 6.4 | 0.00 | 0.00 | 0.00 | 53 | 1016.3 |
| 20260901210005 | 36 | 112 | 0.0 | 4.8 | 0.00 | 0.00 | 0.00 | 56 | 1016.5 |